Location: Auckland
(36.8670°S, 174.7670°E)
Time: 10:36:42
(UTC+12:00)

Tiros 1 despin weight - Pass Details

Date: 24 July 2019
Orbit: 594 x 642 km, 48.2° (Epoch: 24 August)

Event Time Altitude Azimuth Distance (km) Brightness Sun altitude
Rises 23:40:18 0° 283° (WNW) 2,841 - -70.1°
Reaches altitude 10° 23:42:42 10° 274° (W) 1,941 - -70.4°
Maximum altitude 23:46:52 38° 205° (SSW) 925 - -70.8°
Drops below altitude 10° 23:51:04 10° 136° (SE) 1,956 - -71.2°
Sets 23:53:31 0° 127° (SE) 2,866 - -71.4°
